Weather History for KTVR - August, 2012

Change the Weather History Date:

Monday, August 6, 2012

  Actual Average Record
Temperature  
Mean Temperature 84 °F 82 °F  
Max Temperature 96 °F 93 °F 100 °F (1954)
Min Temperature 71 °F 71 °F 57 °F (1948)
Degree Days  
Heating Degree Days 0 0  
Month to date heating degree days 0 0  
Since 1 June heating degree days 0 0  
Since 1 July heating degree days 0 0  
Cooling Degree Days 19 17  
Month to date cooling degree days 122 102  
Year to date cooling degree days 1655 1400  
Since 1 June cooling degree days 1100 1030  
Growing Degree Days 34 (Base 50)    
Moisture  
Dew Point 73 °F    
Average Humidity 73    
Maximum Humidity 100    
Minimum Humidity 45    
Precipitation  
Precipitation 0.00 in 0.10 in 3.10 in (1970)
Month to date precipitation T 0.54  
Year to date precipitation 32.18 33.46  
Sea Level Pressure  
Sea Level Pressure 30.04 in    
Wind  
Wind Speed 2 mph (ESE)    
Max Wind Speed 21 mph    
Max Gust Speed 26 mph    
Visibility 7 miles    
Events Fog , Thunderstorm    
T = Trace of Precipitation, MM = Missing Value Source: NWS Daily Summary

Daily Weather History Graph

Daily Weather History Graph

Search for Another Location

Airport or City:

Trip Planner

Search our weather history database for the weather conditions in past years. The results will help you decide how hot, cold, wet, or windy it might be!

Date:

Astronomy

Aug. 06, 2012 Rise Set
Actual Time 6:22 AM CDT 7:56 PM CDT
Civil Twilight 5:56 AM CDT 8:23 PM CDT
Nautical Twilight 5:24 AM CDT 8:54 PM CDT
Astronomical Twilight 4:51 AM CDT 9:27 PM CDT
Moon 10:28 PM CDT (8/6) 10:50 AM CDT (8/6)
Length of Visible Light 14h 27m
Length of Day
13h 34m
Waning Gibbous, 78% of the Moon is Illuminated
Aug 6
Waning Gibbous
Aug 9
Last Quarter
Aug 17
New
Aug 24
First Quarter
Aug 31
Full

Hourly Weather History & Observations

Time (CDT) Temp. Heat Index Dew Point Humidity Pressure Visibility Wind Dir Wind Speed Gust Speed Precip Events Conditions
12:53 AM 73.9 °F - 73.0 °F 97% 30.07 in 10.0 mi Calm Calm - N/A   Clear
1:53 AM 73.9 °F - 73.0 °F 97% 30.06 in 7.0 mi Calm Calm - N/A   Clear
2:53 AM 73.0 °F - 72.0 °F 96% 30.06 in 5.0 mi Calm Calm - N/A   Clear
3:53 AM 72.0 °F - 71.1 °F 97% 30.06 in 4.0 mi Calm Calm - N/A   Clear
4:53 AM 73.0 °F - 72.0 °F 96% 30.07 in 5.0 mi Calm Calm - N/A   Clear
5:14 AM 71.6 °F - 71.6 °F 100% 30.05 in 1.8 mi Calm Calm - N/A   Clear
5:53 AM 72.0 °F - 71.1 °F 97% 30.07 in 2.0 mi Calm Calm - N/A   Clear
6:00 AM 73.4 °F - 71.6 °F 94% 30.06 in 1.2 mi Calm Calm - N/A   Clear
6:13 AM 71.6 °F - 71.6 °F 100% 30.06 in 2.5 mi Calm Calm - N/A   Clear
6:20 AM 71.6 °F - 69.8 °F 94% 30.06 in 3.0 mi Calm Calm - N/A   Clear
6:33 AM 71.6 °F - 71.6 °F 100% 30.07 in 1.8 mi Calm Calm - N/A   Clear
6:41 AM 73.4 °F - 71.6 °F 94% 30.07 in 0.2 mi Calm Calm - N/A Fog Fog
6:53 AM 73.0 °F - 73.0 °F 100% 30.09 in 0.2 mi Calm Calm - N/A Fog Fog
7:17 AM 75.2 °F - 73.4 °F 94% 30.07 in 1.2 mi Calm Calm - N/A   Partly Cloudy
7:22 AM 75.2 °F - 73.4 °F 94% 30.08 in 3.0 mi Calm Calm - N/A   Clear
7:53 AM 78.1 °F - 75.0 °F 90% 30.10 in 10.0 mi WNW 3.5 mph - N/A   Clear
8:53 AM 82.9 °F 90.2 °F 75.0 °F 77% 30.10 in 10.0 mi Calm Calm - N/A   Clear
9:53 AM 87.1 °F 96.3 °F 75.0 °F 67% 30.10 in 10.0 mi Calm Calm - N/A   Clear
10:53 AM 90.0 °F 99.0 °F 73.9 °F 59% 30.09 in 10.0 mi Variable 3.5 mph - N/A   Clear
11:53 AM 93.9 °F 104.0 °F 73.9 °F 52% 30.08 in 10.0 mi Calm Calm - N/A   Clear
12:53 PM 93.0 °F 103.2 °F 73.9 °F 54% 30.06 in 10.0 mi ESE 5.8 mph - N/A   Clear
1:53 PM 95.0 °F 104.5 °F 73.0 °F 49% 30.03 in 10.0 mi Variable 3.5 mph - N/A   Mostly Cloudy
2:22 PM 95.0 °F 104.5 °F 73.4 °F 49% 30.00 in 10.0 mi Variable 5.8 mph - N/A Thunderstorm Clear
2:37 PM 91.4 °F 102.5 °F 75.2 °F 59% 30.00 in 10.0 mi Variable 3.5 mph - N/A   Partly Cloudy
2:53 PM 89.1 °F 98.0 °F 73.9 °F 61% 30.01 in 10.0 mi WNW 3.5 mph - N/A   Partly Cloudy
3:53 PM 95.0 °F 105.2 °F 73.9 °F 50% 29.98 in 10.0 mi Calm Calm - N/A   Clear
4:53 PM 96.1 °F 103.5 °F 71.1 °F 44% 29.97 in 10.0 mi Calm Calm - N/A   Clear
5:53 PM 95.0 °F 104.5 °F 73.0 °F 49% 29.96 in 10.0 mi SE 3.5 mph - N/A   Clear
6:07 PM 89.6 °F 98.2 °F 73.4 °F 59% 29.95 in 8.0 mi ESE 17.3 mph 26.5 mph N/A Thunderstorm Scattered Clouds
6:17 PM 87.8 °F 95.6 °F 73.4 °F 62% 29.96 in 10.0 mi East 18.4 mph 24.2 mph N/A Thunderstorm Scattered Clouds
6:44 PM 84.2 °F 90.9 °F 73.4 °F 70% 29.96 in 10.0 mi ESE 11.5 mph - N/A   Overcast
6:53 PM 84.0 °F 91.2 °F 73.9 °F 72% 29.99 in 10.0 mi ESE 11.5 mph - N/A   Mostly Cloudy
7:53 PM 81.0 °F 86.7 °F 75.0 °F 82% 30.01 in 10.0 mi East 6.9 mph - N/A   Clear
8:53 PM 79.0 °F - 75.0 °F 88% 29.99 in 10.0 mi Calm Calm - N/A   Clear
9:53 PM 79.0 °F - 73.0 °F 82% 30.02 in 10.0 mi Calm Calm - N/A   Clear
10:53 PM 79.0 °F - 73.0 °F 82% 30.02 in 10.0 mi NE 4.6 mph - N/A   Clear
11:53 PM 75.0 °F - 73.0 °F 94% 29.99 in 10.0 mi Calm Calm - N/A   Clear